Location: Samoth
(37.3328°N, 88.7876°W)
Time: 18:15:39
(UTC+00:00)

Envisat - Pass Details

Date: 20 September 2021
Orbit: 764 x 766 km, 98.2° (Epoch: 18 October)

Event Time Altitude Azimuth Distance (km) Brightness Sun altitude
Rises 10:25:57 0° 22° (NNE) 3,237 6.8 -15.7°
Reaches altitude 10° 10:28:26 10° 31° (NNE) 2,306 6.1 -15.2°
Maximum altitude 10:33:06 36° 97° (E) 1,200 4.7 -14.3°
Drops below altitude 10° 10:37:43 10° 164° (SSE) 2,291 5.5 -13.4°
Sets 10:40:11 0° 173° (S) 3,212 6.2 -12.9°
